Home   Weather   Waterbury   Past weeks

Flag for USA Past Weather in Waterbury, Connecticut, USA — Yesterday and Last 2 Weeks

39 °F

Partly sunny.

Feels Like: 33 °F
Forecast: 31 / 48 °F
Wind: 9 mph from North

Location: Oxford

Current Time: Oct 26, 2016 at 7:16:28 PM

Latest Report: Oct 26, 2016 at 5:50 PM

Visibility: 10 mi

Pressure: 30.39 "Hg

Humidity: 42%

Dew Point: 18 °F

Location of WaterburyLocation

Past Weather in Waterbury — Graph


Waterbury Temperature Yesterday

Maximum temperature yesterday: 46 °F (at 2:50 PM)
Minimum temperature yesterday: 36 °F (at 5:35 AM)
Average temperature yesterday: 40 °F

High & Low Weather Summary for the Past Weeks

High81 °F (Oct 19, 2:50 PM)94% (Oct 13, 2:35 AM)30.47 "Hg (Oct 13, 2:35 AM)
Low28 °F (Oct 26, 4:55 AM)29% (Oct 23, 12:55 PM)29.36 "Hg (Oct 22, 7:52 AM)
Average53 °F70%30.05 "Hg
* Reported Oct 11 5:50 PM — Oct 26 5:50 PM, Waterbury, Weather by CustomWeather, © 2016

Note: Actual official high and low records may vary slightly from our data, if they occured in-between our weather recording intervals... More about our weather records


Waterbury Weather History for the Previous 24 Hours

Scroll right to see more
Time TempWeatherWind HumidityBarometerVisibility
5:50 PM
Wed, Oct 26
39 °FPartly sunny.9 mph42%30.39 "Hg10 mi
4:50 PM43 °FPartly sunny.12 mph36%30.37 "Hg10 mi
3:50 PM45 °FPartly sunny.8 mph34%30.37 "Hg10 mi
2:50 PM46 °FScattered clouds.9 mph34%30.35 "Hg10 mi
1:50 PM46 °FScattered clouds.12 mph34%30.35 "Hg10 mi
12:50 PM45 °FBroken clouds.12 mph37%30.37 "Hg10 mi
11:50 AM43 °FScattered clouds.13 mph42%30.39 "Hg10 mi
10:55 AM43 °FScattered clouds.9 mph42%30.39 "Hg10 mi
9:50 AM39 °FSunny.9 mph48%30.40 "Hg10 mi
8:55 AM37 °FSunny.6 mph52%30.38 "Hg10 mi
7:50 AM30 °FSunny.6 mph64%30.37 "Hg10 mi
6:50 AM30 °FClear.6 mph59%30.36 "Hg10 mi
6:00 AM32 °FClear.6 mph60%30.35 "Hg10 mi
5:55 AM32 °FChilly.6 mph60%30.35 "Hg10 mi
5:35 AM34 °FChilly.5 mph56%30.35 "Hg10 mi
5:15 AM30 °FChilly.5 mph64%30.35 "Hg10 mi
4:55 AM28 °FChilly.3 mph59%30.34 "Hg10 mi
4:35 AM32 °FChilly.5 mph60%30.33 "Hg10 mi
4:15 AM34 °FChilly.3 mph56%30.33 "Hg10 mi
3:55 AM34 °FChilly.3 mph56%30.33 "Hg10 mi
3:35 AM34 °FChilly.5 mph56%30.33 "Hg10 mi
2:55 AM34 °FChilly.3 mph56%30.33 "Hg10 mi
2:35 AM34 °FChilly.No wind56%30.33 "Hg10 mi
2:15 AM36 °FChilly.3 mph52%30.33 "Hg10 mi
1:55 AM36 °FChilly.6 mph52%30.33 "Hg10 mi
1:35 AM36 °FChilly.5 mph52%30.33 "Hg10 mi
1:15 AM37 °FChilly.3 mph48%30.32 "Hg10 mi
12:55 AM37 °FChilly.7 mph52%30.32 "Hg10 mi
12:35 AM37 °FChilly.8 mph52%30.32 "Hg10 mi
11:55 PM
Tue, Oct 25
39 °FChilly.6 mph48%30.32 "Hg10 mi
11:35 PM39 °FChilly.6 mph48%30.31 "Hg10 mi
11:15 PM39 °FChilly.10 mph48%30.31 "Hg10 mi
10:55 PM39 °FChilly.14 mph48%30.31 "Hg10 mi
10:35 PM41 °FQuite cool.6 mph45%30.31 "Hg10 mi
10:15 PM41 °FQuite cool.9 mph45%30.30 "Hg10 mi
9:55 PM41 °FQuite cool.10 mph42%30.30 "Hg10 mi
9:35 PM41 °FQuite cool.15 mph42%30.30 "Hg10 mi
9:15 PM41 °FQuite cool.6 mph42%30.30 "Hg10 mi
8:50 PM41 °FPassing clouds.13 mph42%30.28 "Hg10 mi
7:50 PM41 °FPassing clouds.7 mph42%30.27 "Hg10 mi
Weather by CustomWeather, © 2016

See weather overviewHow to use our weather pages